Time,TemperatureF,DewpointF,PressureIn,WindDirection,WindDirectionDegrees,WindSpeedMPH,WindSpeedGustMPH,Humidity,HourlyPrecipIn,Conditions,Clouds,dailyrainin,SoftwareType,DateUTC
2013-03-09 00:01:00,38.0,-99.9,-100.00,WSW,243,3.0,-999.0,-999,-99.99,,,-99.99,,2013-03-09 08:01:00,
2013-03-09 00:11:00,38.0,-99.9,-100.00,WSW,243,3.0,-999.0,-999,-99.99,,,-99.99,,2013-03-09 08:11:00,
2013-03-09 00:20:00,38.0,-99.9,-100.00,WSW,243,3.0,-999.0,-999,-99.99,,,-99.99,,2013-03-09 08:20:00,
2013-03-09 01:02:00,38.0,-99.9,-100.00,WSW,243,3.0,-999.0,-999,-99.99,,,-99.99,,2013-03-09 09:02:00,
2013-03-09 01:12:00,38.0,-99.9,-100.00,WSW,243,3.0,-999.0,-999,-99.99,,,-99.99,,2013-03-09 09:12:00,
2013-03-09 01:20:00,37.0,-99.9,-100.00,West,264,6.0,-999.0,-999,-99.99,,,-99.99,,2013-03-09 09:20:00,
2013-03-09 02:01:00,37.0,-99.9,-100.00,West,264,6.0,-999.0,-999,-99.99,,,-99.99,,2013-03-09 10:01:00,
2013-03-09 02:11:00,37.0,-99.9,-100.00,West,264,6.0,-999.0,-999,-99.99,,,-99.99,,2013-03-09 10:11:00,
2013-03-09 02:20:00,37.0,-99.9,-100.00,WSW,241,3.0,-999.0,-999,-99.99,,,-99.99,,2013-03-09 10:20:00,
2013-03-09 03:01:00,37.0,-99.9,-100.00,WSW,241,3.0,-999.0,-999,-99.99,,,-99.99,,2013-03-09 11:01:00,
2013-03-09 03:11:00,37.0,-99.9,-100.00,WSW,241,3.0,-999.0,-999,-99.99,,,-99.99,,2013-03-09 11:11:00,
2013-03-09 03:20:00,36.0,-99.9,-100.00,West,260,2.0,-999.0,-999,-99.99,,,-99.99,,2013-03-09 11:20:00,
2013-03-09 04:02:00,36.0,-99.9,-100.00,West,260,2.0,-999.0,-999,-99.99,,,-99.99,,2013-03-09 12:02:00,
2013-03-09 04:12:00,36.0,-99.9,-100.00,West,260,2.0,-999.0,-999,-99.99,,,-99.99,,2013-03-09 12:12:00,
2013-03-09 04:20:00,35.0,-99.9,-100.00,WNW,294,3.0,-999.0,-999,-99.99,,,-99.99,,2013-03-09 12:20:00,
2013-03-09 05:02:00,35.0,-99.9,-100.00,WNW,294,3.0,-999.0,-999,-99.99,,,-99.99,,2013-03-09 13:02:00,
2013-03-09 05:11:00,35.0,-99.9,-100.00,WNW,294,3.0,-999.0,-999,-99.99,,,-99.99,,2013-03-09 13:11:00,
2013-03-09 05:20:00,35.0,-99.9,-100.00,West,273,3.0,-999.0,-999,-99.99,,,-99.99,,2013-03-09 13:20:00,
2013-03-09 06:02:00,35.0,-99.9,-100.00,West,273,3.0,-999.0,-999,-99.99,,,-99.99,,2013-03-09 14:02:00,
2013-03-09 06:11:00,35.0,-99.9,-100.00,West,273,3.0,-999.0,-999,-99.99,,,-99.99,,2013-03-09 14:11:00,
2013-03-09 06:20:00,35.0,-99.9,-100.00,SW,228,2.0,-999.0,-999,-99.99,,,-99.99,,2013-03-09 14:20:00,
2013-03-09 07:02:00,35.0,-99.9,-100.00,SW,228,2.0,-999.0,-999,-99.99,,,-99.99,,2013-03-09 15:02:00,
2013-03-09 07:12:00,35.0,-99.9,-100.00,SW,228,2.0,-999.0,-999,-99.99,,,-99.99,,2013-03-09 15:12:00,
2013-03-09 07:20:00,37.0,-99.9,-100.00,SW,231,6.0,-999.0,-999,-99.99,,,-99.99,,2013-03-09 15:20:00,
2013-03-09 08:02:00,37.0,-99.9,-100.00,SW,231,6.0,-999.0,-999,-99.99,,,-99.99,,2013-03-09 16:02:00,
2013-03-09 08:12:00,37.0,-99.9,-100.00,SW,231,6.0,-999.0,-999,-99.99,,,-99.99,,2013-03-09 16:12:00,
2013-03-09 08:20:00,38.0,-99.9,-100.00,WSW,237,1.0,-999.0,-999,-99.99,,,-99.99,,2013-03-09 16:20:00,
2013-03-09 09:01:00,38.0,-99.9,-100.00,WSW,237,1.0,-999.0,-999,-99.99,,,-99.99,,2013-03-09 17:01:00,
2013-03-09 09:11:00,38.0,-99.9,-100.00,WSW,237,1.0,-999.0,-999,-99.99,,,-99.99,,2013-03-09 17:11:00,
2013-03-09 09:20:00,41.0,-99.9,-100.00,East,89,7.0,-999.0,-999,-99.99,,,-99.99,,2013-03-09 17:20:00,
2013-03-09 10:02:00,41.0,-99.9,-100.00,East,89,7.0,-999.0,-999,-99.99,,,-99.99,,2013-03-09 18:02:00,
2013-03-09 10:11:00,41.0,-99.9,-100.00,East,89,7.0,-999.0,-999,-99.99,,,-99.99,,2013-03-09 18:11:00,
2013-03-09 10:20:00,41.0,-99.9,-100.00,East,97,3.0,-999.0,-999,-99.99,,,-99.99,,2013-03-09 18:20:00,
2013-03-09 11:02:00,41.0,-99.9,-100.00,East,97,3.0,-999.0,-999,-99.99,,,-99.99,,2013-03-09 19:02:00,
2013-03-09 11:12:00,41.0,-99.9,-100.00,East,97,3.0,-999.0,-999,-99.99,,,-99.99,,2013-03-09 19:12:00,
2013-03-09 11:20:00,44.0,-99.9,-100.00,ESE,102,6.0,-999.0,-999,-99.99,,,-99.99,,2013-03-09 19:20:00,
2013-03-09 12:02:00,44.0,-99.9,-100.00,ESE,102,6.0,-999.0,-999,-99.99,,,-99.99,,2013-03-09 20:02:00,
2013-03-09 12:12:00,44.0,-99.9,-100.00,ESE,102,6.0,-999.0,-999,-99.99,,,-99.99,,2013-03-09 20:12:00,
2013-03-09 12:20:00,46.0,-99.9,-100.00,East,97,9.0,-999.0,-999,-99.99,,,-99.99,,2013-03-09 20:20:00,
2013-03-09 13:02:00,46.0,-99.9,-100.00,East,97,9.0,-999.0,-999,-99.99,,,-99.99,,2013-03-09 21:02:00,
2013-03-09 13:12:00,46.0,-99.9,-100.00,East,97,9.0,-999.0,-999,-99.99,,,-99.99,,2013-03-09 21:12:00,
2013-03-09 13:20:00,47.0,-99.9,-100.00,East,84,9.0,-999.0,-999,-99.99,,,-99.99,,2013-03-09 21:20:00,
2013-03-09 14:01:00,47.0,-99.9,-100.00,East,84,9.0,-999.0,-999,-99.99,,,-99.99,,2013-03-09 22:01:00,
2013-03-09 14:11:00,47.0,-99.9,-100.00,East,84,9.0,-999.0,-999,-99.99,,,-99.99,,2013-03-09 22:11:00,
2013-03-09 14:20:00,49.0,-99.9,-100.00,East,91,9.0,-999.0,-999,-99.99,,,-99.99,,2013-03-09 22:20:00,
2013-03-09 15:02:00,49.0,-99.9,-100.00,East,91,9.0,-999.0,-999,-99.99,,,-99.99,,2013-03-09 23:02:00,
2013-03-09 15:11:00,49.0,-99.9,-100.00,East,91,9.0,-999.0,-999,-99.99,,,-99.99,,2013-03-09 23:11:00,
2013-03-09 15:20:00,51.0,-99.9,-100.00,East,89,6.0,-999.0,-999,-99.99,,,-99.99,,2013-03-09 23:20:00,
2013-03-09 16:02:00,51.0,-99.9,-100.00,East,89,6.0,-999.0,-999,-99.99,,,-99.99,,2013-03-10 00:02:00,
2013-03-09 16:12:00,51.0,-99.9,-100.00,East,89,6.0,-999.0,-999,-99.99,,,-99.99,,2013-03-10 00:12:00,
2013-03-09 16:20:00,52.0,-99.9,-100.00,ENE,76,5.0,-999.0,-999,-99.99,,,-99.99,,2013-03-10 00:20:00,
2013-03-09 17:01:00,52.0,-99.9,-100.00,ENE,76,5.0,-999.0,-999,-99.99,,,-99.99,,2013-03-10 01:01:00,
2013-03-09 17:11:00,52.0,-99.9,-100.00,ENE,76,5.0,-999.0,-999,-99.99,,,-99.99,,2013-03-10 01:11:00,
2013-03-09 17:20:00,50.0,-99.9,-100.00,ENE,74,1.0,-999.0,-999,-99.99,,,-99.99,,2013-03-10 01:20:00,
2013-03-09 18:01:00,50.0,-99.9,-100.00,ENE,74,1.0,-999.0,-999,-99.99,,,-99.99,,2013-03-10 02:01:00,
2013-03-09 18:11:00,50.0,-99.9,-100.00,ENE,74,1.0,-999.0,-999,-99.99,,,-99.99,,2013-03-10 02:11:00,
2013-03-09 18:20:00,48.0,-99.9,-100.00,East,95,0.0,-999.0,-999,-99.99,,,-99.99,,2013-03-10 02:20:00,
2013-03-09 19:02:00,48.0,-99.9,-100.00,East,95,0.0,-999.0,-999,-99.99,,,-99.99,,2013-03-10 03:02:00,
2013-03-09 19:12:00,48.0,-99.9,-100.00,East,95,0.0,-999.0,-999,-99.99,,,-99.99,,2013-03-10 03:12:00,
2013-03-09 19:20:00,46.0,-99.9,-100.00,WNW,284,2.0,-999.0,-999,-99.99,,,-99.99,,2013-03-10 03:20:00,
2013-03-09 20:02:00,46.0,-99.9,-100.00,WNW,284,2.0,-999.0,-999,-99.99,,,-99.99,,2013-03-10 04:02:00,
2013-03-09 20:11:00,46.0,-99.9,-100.00,WNW,284,2.0,-999.0,-999,-99.99,,,-99.99,,2013-03-10 04:11:00,
2013-03-09 20:20:00,43.0,-99.9,-100.00,SW,228,3.0,-999.0,-999,-99.99,,,-99.99,,2013-03-10 04:20:00,
2013-03-09 21:02:00,43.0,-99.9,-100.00,SW,228,3.0,-999.0,-999,-99.99,,,-99.99,,2013-03-10 05:02:00,
2013-03-09 21:11:00,43.0,-99.9,-100.00,SW,228,3.0,-999.0,-999,-99.99,,,-99.99,,2013-03-10 05:11:00,
2013-03-09 21:20:00,43.0,-99.9,-100.00,WNW,290,3.0,-999.0,-999,-99.99,,,-99.99,,2013-03-10 05:20:00,
2013-03-09 22:02:00,43.0,-99.9,-100.00,WNW,290,3.0,-999.0,-999,-99.99,,,-99.99,,2013-03-10 06:02:00,
2013-03-09 22:11:00,43.0,-99.9,-100.00,WNW,290,3.0,-999.0,-999,-99.99,,,-99.99,,2013-03-10 06:11:00,
2013-03-09 22:20:00,41.0,-99.9,-100.00,WNW,282,5.0,-999.0,-999,-99.99,,,-99.99,,2013-03-10 06:20:00,
2013-03-09 23:02:00,41.0,-99.9,-100.00,WNW,282,5.0,-999.0,-999,-99.99,,,-99.99,,2013-03-10 07:02:00,
2013-03-09 23:11:00,41.0,-99.9,-100.00,WNW,282,5.0,-999.0,-999,-99.99,,,-99.99,,2013-03-10 07:11:00,
2013-03-09 23:20:00,41.0,-99.9,-100.00,West,266,2.0,-999.0,-999,-99.99,,,-99.99,,2013-03-10 07:20:00,